"Pseudo-MPEC" for P10PM5b

Created 2019 Jul 12 21:07:13 UT using Find_Orb

Click here for an explanation of pseudo-MPECs

 
 Astrometry: 
     P10PM5b  C2019 07 10?3Astrometryf,/BdG;^Figpredacted;E$9click9a=dK:=/nyTF51
     P10PM5b  C2019 07 10qls+X%nPhereHXw=forqw,^n,c-y$JcO8gYl^LeC^El5GJ2dudJZF51
     P10PM5b  C2019 07 10XVw?UUC^bxwOXCg^ceB.WW/'DsW.C7@h_/C(([DXs^V;B??']v6tF51
     P10PM5b  C2019 07 10cuexplanation(`fH:.aJ+jRg4XybqUWmN]2/tcE8]bh@ITBcc*3F51
     P10PM5b ^C2019 07 11.60981300 01 04.251-17 13 54.48   ~7BJq 22.16GVNEOCP568
     P10PM5b ^C2019 07 11.61100000 01 04.403-17 13 54.29   ~7BJq 21.91GVNEOCP568
     P10PM5b ^C2019 07 11.61218400 01 04.559-17 13 54.04   ~7BJq 22.09GVNEOCP568
     P10PM5b  C2019 07 12.40116400 02 50.00 -17 11 26.4    ~7CAM 21.9 GVNEOCPH01
     P10PM5b  C2019 07 12.40576900 02 50.59 -17 11 25.6    ~7CAM 21.8 GVNEOCPH01
     P10PM5b  C2019 07 12.42032400 02 52.46 -17 11 23.0    ~7CAM 22.2 GVNEOCPH01
     P10PM5b  C2019 07 12.42411900 02 52.95 -17 11 22.3    ~7CAM 22.5 GVNEOCPH01
     P10PM5b ^C2019 07 12.56818500 03 12.055-17 10 53.33   ~7CHb 22.24GVNEOCP568
     P10PM5b ^C2019 07 12.56936300 03 12.206-17 10 53.10   ~7CHb 22.29GVNEOCP568
     P10PM5b ^C2019 07 12.57054300 03 12.356-17 10 52.90   ~7CHb 22.18GVNEOCP568

Station data:
(568) Mauna Kea  (N19.826116 W155.472200)  US/Hawaii.
(F51) Pan-STARRS 1, Haleakala  (N20.707235 W156.255910)  US/Hawaii.
   Observers N. Primak, A. Schultz, S. Watters, J. Thiel, T. Goggia. Measurer
   PS1 Science Consortium. 1.8-m Ritchey-Chrétien + CCD.
(H01) Magdalena Ridge Observatory, Socorro  (N33.984833 W107.189333)  US/New
   Mexico.  Observers W. H. Ryan, E. V. Ryan. Measurer W. H. Ryan. 2.4-m
   f/8.9 reflector + CCD.

Orbital elements:  P10PM5b
   Perihelion 2019 Aug 9.768695 +/- 3.29 TT = 18:26:55 (JD 2458705.268695)
Epoch 2019 Jul 12.0 TT = JDT 2458676.5   Earth MOID: 0.4688   AutoNEOCP
M 351.59887107 +/- 2.4              (J2000 ecliptic)
n   0.29202328 +/- 0.0702           Peri.  271.34838 +/- 3.9
a   2.25004426 +/- 0.36             Node    61.99976 +/- 3.0
e   0.3566793 +/- 0.0881            Incl.    8.07788 +/- 0.46
P   3.38                   H 20.7   G  0.15   U 11.0  
q 1.44750001 +/- 0.0441    Q 3.05258852 +/- 0.905
From 14 observations 2019 July 10-12 (47.9 hr); mean residual 0".07
Residuals in arcseconds: 
190710 F51  .23+  .04+    190711 568  .01-  .08-    190712 H01  .05-  .02+    
190710 F51  .15-  .08-    190711 568  .04+  .05-    190712 568  .01+  .02+    
190710 F51  .03+  .05-    190712 H01  .06+  .01-    190712 568  .02+  .04+    
190710 F51  .13-  .16+    190712 H01  .00   .02-    190712 568  .01+  .03+    
190711 568  .01+  .04-    190712 H01  .07-  .00     

Ephemerides (geocentric):
Date (UTC) HH   RA              Dec         delta   r     elong  mag " sig PA
---- -- -- --  -------------   -----------  ------ ------ -----  --- ---- ---
2019 07 12 21  00 03 52.354   -17 09 49.44  .71176 1.4668 115.0 22.4 .701 146
2019 07 12 22  00 03 57.858   -17 09 41.77  .71153 1.4668 115.0 22.4 .696 144
2019 07 12 23  00 04 03.360   -17 09 34.12  .71130 1.4667 115.0 22.4 .692 143
2019 07 13 00  00 04 08.860   -17 09 26.47  .71106 1.4667 115.0 22.4 .688 141
2019 07 13 01  00 04 14.357   -17 09 18.83  .71083 1.4666 115.1 22.4 .684 139
2019 07 13 02  00 04 19.852   -17 09 11.21  .71060 1.4666 115.1 22.4 .682 136
2019 07 13 03  00 04 25.345   -17 09 03.59  .71036 1.4665 115.1 22.4 .680 134
2019 07 13 04  00 04 30.836   -17 08 55.99  .71013 1.4665 115.1 22.4 .680 132
2019 07 13 05  00 04 36.324   -17 08 48.39  .70990 1.4664 115.1 22.4 .680 130
2019 07 13 06  00 04 41.810   -17 08 40.81  .70966 1.4663 115.1 22.4 .681 127
2019 07 13 07  00 04 47.293   -17 08 33.24  .70943 1.4663 115.2 22.4 .684 125
2019 07 13 08  00 04 52.774   -17 08 25.67  .70920 1.4662 115.2 22.4 .688 122
2019 07 13 09  00 04 58.253   -17 08 18.12  .70896 1.4662 115.2 22.4 .693 120
2019 07 13 10  00 05 03.730   -17 08 10.58  .70873 1.4661 115.2 22.4 .700 117
2019 07 13 11  00 05 09.204   -17 08 03.05  .70850 1.4661 115.2 22.4 .708 115
2019 07 13 12  00 05 14.676   -17 07 55.53  .70827 1.4660 115.2 22.4 .718 112
2019 07 13 13  00 05 20.146   -17 07 48.01  .70804 1.4659 115.3 22.4 .729 110
2019 07 13 14  00 05 25.613   -17 07 40.51  .70780 1.4659 115.3 22.4 .742 107
2019 07 13 15  00 05 31.078   -17 07 33.02  .70757 1.4658 115.3 22.4 .756 105
2019 07 13 16  00 05 36.541   -17 07 25.55  .70734 1.4658 115.3 22.4 .773 102
2019 07 13 17  00 05 42.001   -17 07 18.08  .70711 1.4657 115.3 22.4 .791 100
2019 07 13 18  00 05 47.460   -17 07 10.62  .70688 1.4657 115.3 22.3 .810  98
2019 07 13 19  00 05 52.915   -17 07 03.17  .70665 1.4656 115.4 22.3 .831  95
2019 07 13 20  00 05 58.369   -17 06 55.73  .70642 1.4656 115.4 22.3 .854  93
2019 07 13 21  00 06 03.820   -17 06 48.31  .70618 1.4655 115.4 22.3 .878  91
2019 07 13 22  00 06 09.268   -17 06 40.89  .70595 1.4654 115.4 22.3 .904  89
2019 07 13 23  00 06 14.714   -17 06 33.48  .70572 1.4654 115.4 22.3 .932  87
2019 07 14 00  00 06 20.158   -17 06 26.09  .70549 1.4653 115.4 22.3 .961  85
2019 07 14 01  00 06 25.600   -17 06 18.70  .70526 1.4653 115.5 22.3 0.99  83
2019 07 14 02  00 06 31.039   -17 06 11.33  .70503 1.4652 115.5 22.3 1.02  82
2019 07 14 03  00 06 36.476   -17 06 03.97  .70480 1.4652 115.5 22.3 1.06  80
2019 07 14 04  00 06 41.910   -17 05 56.61  .70457 1.4651 115.5 22.3 1.09  79
2019 07 14 05  00 06 47.343   -17 05 49.27  .70434 1.4651 115.5 22.3 1.13  77
2019 07 14 06  00 06 52.772   -17 05 41.94  .70411 1.4650 115.5 22.3 1.16  76
2019 07 14 07  00 06 58.200   -17 05 34.62  .70388 1.4650 115.6 22.3 1.20  74
2019 07 14 08  00 07 03.625   -17 05 27.31  .70365 1.4649 115.6 22.3 1.24  73
2019 07 14 09  00 07 09.047   -17 05 20.01  .70342 1.4648 115.6 22.3 1.28  72
2019 07 14 10  00 07 14.467   -17 05 12.72  .70319 1.4648 115.6 22.3 1.33  71
2019 07 14 11  00 07 19.885   -17 05 05.44  .70297 1.4647 115.6 22.3 1.37  69
2019 07 14 12  00 07 25.300   -17 04 58.17  .70274 1.4647 115.6 22.3 1.41  68
2019 07 14 13  00 07 30.714   -17 04 50.92  .70251 1.4646 115.7 22.3 1.46  67
2019 07 14 14  00 07 36.124   -17 04 43.67  .70228 1.4646 115.7 22.3 1.51  66
2019 07 14 15  00 07 41.532   -17 04 36.43  .70205 1.4645 115.7 22.3 1.55  65
2019 07 14 16  00 07 46.938   -17 04 29.21  .70182 1.4645 115.7 22.3 1.60  65
2019 07 14 17  00 07 52.341   -17 04 21.99  .70159 1.4644 115.7 22.3 1.65  64
2019 07 14 18  00 07 57.742   -17 04 14.79  .70136 1.4644 115.7 22.3 1.70  63
2019 07 14 19  00 08 03.141   -17 04 07.60  .70114 1.4643 115.8 22.3 1.76  62
2019 07 14 20  00 08 08.537   -17 04 00.41  .70091 1.4643 115.8 22.3 1.81  61